Location: Veyrier
(46.1830°N, 6.2000°E)
Time: 02:49:55
(UTC+02:00)

Daily predictions for brighter satellites

Satellite Brightness Start Highest point End
(mag) Time Altitude Azimuth Time Altitude Azimuth Time Altitude Azimuth
CENTAUR R/B 4.5 03:56:20 24° N 03:56:20 24° N 04:00:12 10° NNE
USA 267 4.4 04:07:21 10° ESE 04:10:54 35° ESE 04:10:54 35° ESE
Cosmos 1943 Rocket 3.9 04:30:06 26° NNE 04:30:06 26° NNE 04:32:26 10° NNE
SJ 16-02 3.3 05:07:40 23° ESE 05:08:42 25° E 05:12:19 10° NE
Resurs 1-4 Rocket 4.4 05:09:42 10° N 05:10:12 12° NNW 05:10:12 12° NNW
Cosmos 2341 Rocket 4.3 05:08:16 10° N 05:14:40 67° E 05:21:01 10° SSE
Cosmos 2369 Rocket 3.8 05:24:58 22° NNW 05:24:58 22° NNW 05:27:42 10° N
Cosmos 2227 Rocket 3.6 05:18:06 10° NNW 05:23:22 37° NE 05:28:36 10° ESE
USA 215 3.4 05:18:07 10° NE 05:24:30 57° NNW 05:25:11 54° NW
Nadezhda 1 Rocket 4.0 05:26:54 62° NW 05:26:54 62° NW 05:32:39 10° N
Cosmos 1125 Rocket 4.0 05:32:50 32° S 05:35:06 59° ESE 05:40:19 10° NNE
Lacrosse 5 3.4 05:39:22 24° NNW 05:39:52 24° N 05:44:00 10° NE
ADEOS II 2.0 05:37:59 10° N 05:42:59 63° WNW 05:42:59 63° WNW
NOSS 3-1 (C) 3.3 05:42:56 55° SW 05:44:22 85° NW 05:51:00 10° NE
Cosmos 1656 Rocket 3.8 05:45:39 54° WNW 05:45:39 54° WNW 05:51:11 10° NNE
USA 229 DEB 3.9 05:47:01 46° WNW 05:48:14 51° NW 05:55:02 10° NE
USA 229 3.9 05:47:06 46° WNW 05:48:19 51° NW 05:55:07 10° NE
Meteor 2-21 4.3 05:45:47 10° N 05:51:52 81° W 05:57:58 10° S
NOSS 3-1 (A) 3.4 05:49:28 37° SSW 05:52:00 81° SE 05:58:36 10° NE
Cosmos 2219 3.2 05:54:05 52° W 05:54:47 56° WSW 06:00:15 10° S
Cosmos 158 Rocket 4.0 05:53:45 50° WNW 05:54:49 61° WSW 06:00:06 10° S
USA 267 3.5 05:50:53 10° SSE 05:57:03 44° SW 05:58:16 40° WSW
Cosmos 2366 rocket 4.3 05:51:04 10° N 05:57:13 67° E 06:03:22 10° SSE
Cosmos 2297 Rocket 2.8 05:55:11 10° NNW 06:00:47 57° ENE 06:06:19 10° SE
Cosmos 1048 Rocket 3.9 05:58:50 31° NW 06:01:16 64° WSW 06:06:27 10° S
Okean O Rocket 1.4 05:58:28 10° N 06:02:53 77° WNW 06:04:39 36° SSW
Cosmos 2154 Rocket 4.4 05:58:04 10° NNW 06:03:52 39° W 06:09:39 10° SSW
ATLAS 3B R/B 4.1 05:58:16 10° NNW 06:04:19 32° NNE 06:10:09 10° E
IRS-1C Rocket 4.2 05:59:07 10° NNE 06:04:26 76° ESE 06:09:41 10° S
SL-8 Rocket 3.9 06:02:31 10° N 06:08:51 78° W 06:15:10 10° S
CZ-4B R/B 4.4 06:05:48 10° NNE 06:10:17 68° ESE 06:14:45 10° S
Cosmos 1943 Rocket 3.6 06:11:39 20° NW 06:11:39 20° NW 06:15:22 10° N
Cosmos 2082 4.0 06:05:48 10° NNW 06:11:28 66° ENE 06:17:03 10° SE
Meteor 2-14 Rocket 4.3 06:05:41 10° NNW 06:11:43 73° W 06:17:46 10° S
ATLAS CENTAUR R/B 3.8 06:13:26 10° N 06:15:56 17° NE 06:18:27 10° ENE
Cosmos 2221 3.9 06:11:51 10° N 06:16:01 40° ENE 06:20:09 10° SE
Cosmos 1356 Rocket 3.7 06:15:53 46° W 06:16:07 46° WNW 06:20:19 10° N
Meteor 2-16 Rocket 4.3 06:11:51 10° NNW 06:18:00 77° W 06:24:08 10° S
Meteor 1-31 Rocket 2.6 06:14:44 10° NNE 06:18:34 86° ESE 06:22:22 10° SSW
CZ-4B DEB 4.1 06:14:02 10° N 06:19:30 68° WNW 06:24:58 10° SSW
DEBRIS 3.8 06:15:34 27° W 06:20:19 70° NNW 06:23:46 10° ENE
PAYLOAD B 4.2 06:16:05 10° N 06:21:32 63° WNW 06:26:58 10° SSW
COSMO-SKYMED 1 3.5 06:18:32 10° SSE 06:22:43 50° ENE 06:26:56 10° N
Okean-O 3.8 06:19:03 10° NNE 06:23:18 44° E 06:27:32 10° S
Cosmos 864 Rocket 4.4 06:17:26 10° N 06:23:40 83° W 06:29:48 10° S
CZ-4B R/B 3.2 06:22:43 10° N 06:28:08 63° WNW 06:33:38 10° SSW
Cosmos 1842 Rocket 3.4 06:28:23 10° NNW 06:32:42 63° W 06:36:58 10° S
Meteor 2-5 Rocket 4.1 06:27:25 10° SW 06:33:00 44° WNW 06:38:31 10° N
Cosmos 1908 3.3 06:29:52 10° N 06:33:43 76° E 06:37:32 10° SSE
Meteor 2-1 Rocket 4.2 06:29:17 10° NNW 06:35:11 71° W 06:40:57 10° S
Cosmos 2369 4.1 06:32:07 10° SSW 06:37:42 68° ESE 06:43:20 10° NNE
Cosmos 2218 Rocket 4.1 06:35:07 10° NNW 06:41:10 53° W 06:47:15 10° SSW
EO 1 Del DPAF 3.1 06:40:51 10° S 06:44:40 73° WSW 06:48:31 10° NNW
Meteor PRIRODA 4.2 06:42:18 10° N 06:45:48 37° WNW 06:49:17 10° SW
SJ 16-02 2.0 06:44:46 20° WSW 06:47:08 34° WNW 06:51:10 10° N
Landsat 4 4.3 06:44:21 10° SSW 06:47:48 35° W 06:51:18 10° NNW
Cosmos 372 Rocket 4.5 06:45:14 14° SW 06:49:15 38° WNW 06:54:11 10° N
USA 81 4.4 06:45:01 10° SSW 06:49:57 40° WNW 06:54:55 10° N
SKYMED 3 4.5 06:48:25 10° S 06:52:45 80° WSW 06:57:07 10° NNW
CZ-2C R/B 4.3 06:52:30 10° SSW 06:56:51 35° W 07:01:10 10° NNW
Cosmos 1300 4.0 06:53:28 10° N 06:57:09 43° ENE 07:00:48 10° SSE
Meteor 1-28 Rocket 3.7 06:54:08 10° SSW 06:57:41 38° W 07:01:17 10° NNW
Cosmos 1076 Rocket 4.1 06:53:39 10° S 06:57:55 61° E 07:02:12 10° NNE
Cosmos 2278 3.7 06:54:59 10° SSW 07:00:38 85° WNW 07:06:21 10° NNE
Nadezhda 3 Rocket 4.1 06:56:49 10° S 07:03:08 86° E 07:09:26 10° N
NOSS 2-3 (D) 4.1 06:59:33 10° SSW 07:04:15 77° SE 07:09:50 10° NE
PAYLOAD A 4.1 07:00:26 10° NNE 07:05:10 73° ESE 07:10:00 10° S
USA 215 4.2 07:00:59 10° NE 07:06:47 35° N 07:12:31 10° WNW
Cosmos 1607 4.0 07:00:51 10° NW 07:07:18 69° WSW 07:13:42 10° SSE
Cosmos 2227 Rocket 2.7 07:02:12 10° NW 07:07:27 39° WSW 07:12:39 10° S
CZ-2C R/B 3.3 07:03:08 10° NNE 07:08:03 57° E 07:13:04 10° S
Okean 3 Rocket 3.6 07:05:13 10° S 07:09:41 85° W 07:14:08 10° N
SKYMED 2 3.7 07:06:35 10° S 07:10:48 51° W 07:15:04 10° NNW
Cosmos 494 Rocket 4.4 07:09:17 10° NW 07:14:07 41° WSW 07:18:59 10° S
Cosmos 1766 Rocket 4.4 07:10:17 10° S 07:14:31 56° E 07:18:50 10° NNE
GP-B 3.5 07:10:40 10° SSE 07:15:03 68° E 07:19:29 10° N
Thor Agena Rocket 3.7 07:14:14 10° SSE 07:19:29 85° ENE 07:24:44 10° NNW
ADEOS II 3.9 07:20:40 10° NW 07:21:54 11° NW 07:23:09 10° WNW
Lacrosse 5 3.3 07:19:38 10° NW 07:24:07 30° NNE 07:28:37 10° E
Cosmos 1674 3.3 07:22:53 10° SW 07:26:15 32° WNW 07:29:38 10° N
Cosmos 1726 2.3 07:23:49 10° NNW 07:27:22 49° W 07:30:55 10° S
Cosmos 2098 Rocket 4.4 07:20:13 10° NNW 07:27:43 73° W 07:35:00 10° S
IDEFIX/ARIANE 42P 2.6 07:22:48 10° N 07:28:04 78° WNW 07:33:15 10° SSW
NOAA 6 4.3 07:23:44 10° N 07:28:42 48° WNW 07:33:37 10° SW
Cosmos 2228 Rocket 4.4 07:24:23 10° N 07:28:49 46° ENE 07:33:10 10° SSE
ATLAS 2AS CENTAUR R/B 3.4 07:23:13 10° SSW 07:30:59 76° SE 07:39:09 10° NE
CZ-4 R/B 3.7 07:30:36 10° NE 07:34:03 29° E 07:37:27 10° SSE
Cosmos 1328 Rocket 4.1 07:31:20 10° N 07:35:39 64° E 07:39:54 10° SSE
Cosmos 1656 3.9 07:31:33 10° SW 07:37:07 54° WNW 07:42:42 10° NNE
